EXPRESS 103

Last updated on Thu Oct 30 2025 00:02:51 GMT+0000 (Coordinated Universal Time)

1 45985U 20053A 25301.91934851 -.00000271 00000+0 00000+0 0 9991 2 45985 0.0160 247.1160 0000843 270.7546 307.1244 1.00275844 19335
UTC large
Height (km)
Speed (km/s)
/
Latitude / Longitude
Inclination (degrees)
Orbital Period (minutes)
Azimuth
Elevation
Range (km)
Doppler Factor

Next 0 passes for location: London (51.5072 / 0.1276)

Sorry there are no passes over London.